Location: Newark
(25.6108°S, 54.5803°W)
Time: 16:40:20
(UTC+00:00)

Courier 1B Rocket - Pass Details

Date: 31 October 2020
Orbit: 920 x 1202 km, 28.2° (Epoch: 22 November)

Event Time Altitude Azimuth Distance (km) Brightness Sun altitude
Rises 14:03:01 0° 258° (WSW) 3,728 7.8 68.4°
Reaches altitude 10° 14:05:50 10° 263° (W) 2,736 7.3 68.9°
Maximum altitude 14:12:09 50° 337° (NNW) 1,186 6.4 70.2°
Drops below altitude 10° 14:18:10 10° 51° (NE) 2,613 7.7 71.3°
Sets 14:20:49 0° 56° (NE) 3,545 8.2 71.8°
